Orbital Elements at Epoch 2459200.5 (2020-Dec-17.0) TDB
Reference: JPL 23 (heliocentric ecliptic J2000)
Element | Value | Uncertainty (1-sigma) | Units |
e | .08568073167417037 | 5.0768e-08 | |
a | 2.215685362002699 | 9.4662e-09 | au |
q | 2.025843819026559 | 1.1356e-07 | au |
i | 6.099821545864692 | 4.1568e-06 | deg |
node | 231.6227456064743 | 4.4366e-05 | deg |
peri | 98.99234673473904 | 4.983e-05 | deg |
M | 233.4371522878691 | 2.3755e-05 | deg |
tp | 2459624.010611930509 (2022-Feb-13.51061193) | 8.0403e-05 | TDB |
period | 1204.649097670153 3.30 | 7.72e-06 2.114e-08 | d yr |
n | .2988422111436904 | 1.9151e-09 | deg/d |
Q | 2.40552690497884 | 1.0277e-08 | au |
|
| | Orbit Determination Parameters
Additional Information
|